DRAGON CRS-33 (65304 NORAD) Tracking and Keplerian Element Data

This shows tracking and keplerian element data for the satellite.

Feedback or suggestion? Click here.




ElementValue
Catalog65304
NameDRAGON CRS-33
Epoch Orbit11
Epoch Day354.21533065
Epoch Year2025
RAAN105.4589
Inclination51.6321
Eccentricity0.0003198
Argument of Perigee275.1086
Mean Anonmoly84.9538
Mean Motion15.49679666
Decay Rate6.989E-05
L11 65304U 25186A 25354.21533065 .00006989 00000+0 13177-3 0 9997
L22 65304 51.6321 105.4589 0003198 275.1086 84.9538 15.49679666 118



Live tracking and technical data element details for DRAGON CRS-33 (NORAD 65304). DRAGON CRS-33 can be tracked NOW for your location showing map with azimuth and elevation plus other details from your city location.







IsCatalogInMostPopularTable: catalog: 65304, numindb: 20
Update: records affected: 1



GetName: 65304 DRAGON CRS-33

Hit Count: updated at: Tue, 21 Apr 2026 20:56:46 GMT